Location: Feigenhofen
(48.4939°N, 10.7793°E)
Time: 15:57:50
(UTC+00:00)

ATLAS CENTAUR R/B - Pass Details

Date: 26 May 2022
Orbit: 443 x 688 km, 64.6° (Epoch: 07 June)

Event Time Altitude Azimuth Distance (km) Brightness Sun altitude
Rises 00:08:28 0° 308° (NW) 3,048 5.4 -19.4°
Reaches altitude 10° 00:11:39 10° 287° (WNW) 2,104 4.3 -19.2°
Enters shadow 00:14:00 16° 258° (WSW) 1,732 3.6 -19.1°
